Overview Statistics Trail Chart Weather Telemetry Raw packets
 

This is the latest recevied weather packets stored in our database for station/object N7WSS. If no packets are shown the sender has not sent any weather packets the latest 10 day(s).

<< 31 32 33 34 35 36 37 >>
Time Temp. Humidity Pressure Rain* Wind** Luminosity Snow
1788417333 26.11° C 65% 1014.7 hPa 0 mm - - -
1788417029 26.11° C 65% 1014.5 hPa 0 mm - - -
1788416723 26.11° C 66% 1014.5 hPa 0 mm - - -
1788416419 26.11° C 66% 1014.5 hPa 0 mm - - -
1788416115 26.11° C 65% 1014.5 hPa 0 mm - - -
1788415815 26.11° C 65% 1014.3 hPa 0 mm - - -
1788415514 26.11° C 65% 1014.9 hPa 0 mm - - -
1788415209 26.11° C 64% 1014.7 hPa 0 mm - - -
1788414906 26.67° C 64% 1014.8 hPa 0 mm - - -
1788414606 26.67° C 63% 1014.5 hPa 0 mm - - -
1788414301 26.67° C 62% 1014.8 hPa 0 mm - - -
1788413996 26.67° C 61% 1014.5 hPa 0 mm - - -
1788413696 27.22° C 60% 1014.7 hPa 0 mm - - -
1788413393 27.22° C 59% 1014.9 hPa 0 mm - - -
1788413088 27.78° C 57% 1014.5 hPa 0 mm - - -
1788412784 27.78° C 56% 1014.7 hPa 0 mm - - -
1788412479 27.22° C 56% 1014.7 hPa 0 mm - - -
1788412175 27.22° C 58% 1014.7 hPa 0 mm - - -
1788411874 27.22° C 61% 1014.5 hPa 0 mm - - -
1788411568 27.22° C 61% 1014.5 hPa 0 mm - - -
1788411264 27.22° C 61% 1014.8 hPa 0 mm - - -
1788410961 27.22° C 60% 1014.4 hPa 0 mm - - -
1788410661 27.22° C 60% 1014.7 hPa 0 mm - - -
1788410358 27.22° C 60% 1014.7 hPa 0 mm - - -
1788410053 27.22° C 60% 1014.5 hPa 0 mm - - -

* Rain latest hour (hover to see other rain measurements)
** Current wind speed in m/s (hover to see current wind gust speed)